sat.trackr.live / text

‹ back to catalog

STARLINK-32184

NORAD 60942 · 2024-155U

PAYLOAD ACTIVE UNKNOWN

§ Identity

Operator
Country
US
Launch date
2024-08-31
Launch site
AFWTR
Launch vehicle
Mass (kg)
RCS (m²)

Purposes: comms

External: N2YO · Heavens-Above · Gunter

§ Orbital elements

Epoch: 2026-09-20T10:14:44.719008Z

Period
93.85 min
Inclination
53.1595°
Eccentricity
0.0001343
Mean motion
15.34387919 rev/d
Perigee alt
461.8 km
Apogee alt
463.7 km
Semi-major
6,840.9 km
B*
1.2443e-5
RAAN
301.7582°
Arg perigee
82.8675°
Mean anomaly
277.2481°
Rev number
11,615

§ Raw data

STARLINK-321841 60942U 24155U   26263.42690647  .00000044  00000+0  12443-4 0  99902 60942  53.1595 301.7582 0001343  82.8675 277.2481 15.34387919116159

JSON: /api/v1/satellites/60942 · /tle

For live sub-satellite position, see the globe view (requires WebGL).

§ Visibility from observer

Set your observer location to see the next 7 days of passes ≥ 10°. The values pass through the URL so the page stays shareable.

No JS? Fill the form by hand. The geolocation button needs JavaScript.